www.pogodaiklimat.ru

Погода и климат >> Архив погоды >> Доминиканская Республика >> Sabana De La Mar


ПОГОДА в Sabana De La Mar

  • Прогноз погоды в Sabana De La Mar
  • Монитор погоды в Sabana De La Mar
  • Климат города

АРХИВ ПОГОДЫ в Sabana De La Mar

Время (UTC), дата Ветер
(напр.,м/с)
 
Видим.   Явления Облачность Т
(С)
Тd
(С)
f
(%)
Тe
(С)
Тes
(С)
Комфортность P
(гПа)
Po
(гПа)
Тmin
(С)
Tmax
(С)
R
(мм)
R24
(мм)
S
(см)
00 19.02 В 3 16 км {ливн. осадки} 1/1 540 м
[Cu med, cong]
+24.7 +21.1 80 +31 +31 очень
душно
1019.3 1019.0 +14.5 +28.4
12 19.02 ЮВ 2 16 км 9/9 450 м
[Cu Sc]
+23.6 +20.7 84 +29 +30 душно 1021.6 1022.0 +16.5 +28.4 2
15 19.02 В 5 16 км {ливн. осадки} 4/4 600 м
[Cu med, cong]
+27.0 +25.3 90 +39 +43 очень
душно
1022.6 1023.0 3
18 19.02 В 4 16 км 3/3 600 м
[Cu med, cong]
+28.0 +21.5 68 +36 +43 очень
душно
1021.5 1022.0 +16.5 +28.5
21 19.02 В 5 16 км 5/5 600 м
[Cu med, cong]
+27.0 +20.7 68 +34 +34 очень
душно
1020.7 1021.0
00 20.02 В 4 16 км 9/9 600 м
[Cu Sc]
+25.4 +20.8 76 +32 +32 очень
душно
1021.3 1021.0 +16.5 +28.5
12 20.02 В 4 16 км 4/4 300 м
[Cu med, cong]
+25.2 +20.3 74 +31 +32 очень
душно
1021.2 1021.0 +17.5 +28.5 2
15 20.02 В 4 10 км осадки на расстоянии {дождь} 5/5 450 м
[Cu Sc]
+26.2 +21.7 76 +34 +38 очень
душно
1023.1 1023.0 0.4
18 20.02 В 4 16 км {дождь} 4/4 540 м
[Cu med, cong]
+27.0 +22.1 75 +35 +41 очень
душно
1022.1 1022.0 +17.5 +27.5
21 20.02 В 5 16 км 5/5 540 м
[Cu med, cong]
+26.8 +21.1 71 +34 +34 очень
душно
1020.2 1020.0
12 21.02 ЮВ 2 16 км 4/4 540 м
[Cu med, cong]
+23.8 +21.0 84 +30 +31 очень
душно
1021.4 1021.0 +18.0 +27.5 3
18 21.02 В 3 16 км {ливн. осадки} 5/5 540 м
[Cu med, cong]
+27.0 +21.1 70 +34 +40 очень
душно
1021.3 1021.0 +18.0 +27.0 6
21 21.02 В 3 16 км 6/6 540 м
[Cu med, cong]
+26.7 +20.7 70 +33 +34 очень
душно
1021.0 1021.0
00 22.02 В 7 16 км 8/8 540 м
[Cu med, cong]
+24.6 +20.2 77 +30 +30 очень
душно
1022.0 1022.0 +18.0 +27.0
12 22.02 В 4 16 км {ливн. осадки} 3/3 600 м
[Cu med, cong]
+24.6 +18.7 70 +29 +30 душно 1022.1 1022.0 +18.5 +27.0 0.8
15 22.02 В 5 16 км 5/1 660 м
[Cu med, cong Ac trans]
+27.2 +19.0 61 +32 +37 очень
душно
1023.5 1024.0
18 22.02 В 5 16 км 1/1 660 м
[Cu med, cong]
+28.0 +19.9 61 +34 +41 очень
душно
1021.7 1022.0 +18.5 +28.0
21 22.02 СВ 5 16 км 5/5 660 м
[Cu med, cong]
+26.0 +19.9 69 +32 +32 очень
душно
1020.2 1020.0
00 23.02 В 4 16 км в посл. час ливневой дождь 8/8 450 м
[Cu Sc]
+23.4 +20.8 85 +31 +31 очень
душно
1021.4 1021.0 +18.5 +28.0 0.5
12 23.02 штиль 0 16 км 8/8 300 м
[Cu med, cong]
+22.8 +21.1 90 +30 +31 очень
душно
1021.5 1022.0 +17.5 +28.0 15
15 23.02 В 5 16 км {ливн. осадки} 4/4 540 м
[Cu med, cong]
+26.4 +21.6 75 +34 +38 очень
душно
1022.3 1022.0 4
18 23.02 В 5 16 км 3/3 540 м
[Cu med, cong]
+27.6 +21.4 69 +35 +41 очень
душно
1020.6 1021.0 +17.5 +27.8
21 23.02 В 6 16 км 1/1 540 м
[Cu med, cong]
+26.8 +20.8 70 +34 +34 очень
душно
1018.9 1019.0
00 24.02 В 5 16 км 1/1 540 м
[Cu med, cong]
+24.4 +20.4 78 +30 +30 очень
душно
1019.7 1020.0 +17.5 +27.8
12 24.02 ЮЗ 1 16 км 5/5 300 м
[Cu med, cong]
+20.4 +19.8 96 +26 +27 душно 1018.2 1018.0 +15.0 +25.7 14
15 24.02 ЮВ 2 16 км в посл. час дождь {ливн. осадки} 5/5 450 м
[Cu med, cong]
+23.0 +20.7 87 +30 +37 очень
душно
1019.5 1020.0 1
18 24.02 В 5 16 км {ливн. осадки} 4/4 540 м
[Cu med, cong]
+26.4 +21.3 74 +34 +38 очень
душно
1018.1 1018.0 +15.0 +27.0 0.6
21 24.02 В 4 16 км 4/4 540 м
[Cu med, cong]
+25.6 +21.3 77 +32 +33 очень
душно
1016.7 1017.0
00 25.02 В 4 16 км 4/4 540 м
[Cu med, cong]
+24.4 +20.1 77 +30 +30 очень
душно
1017.6 1018.0 +15.0 +27.0
12 25.02 Ю 1 16 км в посл. час ливневой дождь 9/9 300 м
[Cu Sc]
+26.2 +19.9 68 +32 +32 очень
душно
1018.0 1018.0 +15.0 +27.0 33
15 25.02 Ю 1 16 км в посл. час ливневой дождь {гроза} 9/9 450 м
[Cb cap]
+29.8 +19.5 54 +36 +37 очень
душно
1019.8 1020.0 16
18 25.02 ЮВ 3 16 км {ливн. осадки} 8/5 600 м
[Cb cap Ci fib]
+25.0 +20.4 76 +31 +37 очень
душно
1019.0 1019.0 +15.0 +25.5 3

 

Местоположение метеостанции Sabana De La Mar (Доминиканская Республика): широта 19.05 долгота -69.38 высота над уровнем моря 10 м.

В архиве по умолчанию представлена погода в Sabana De La Mar за последнюю неделю. Архивные данные за месяц целиком и за предыдущие месяцы, начиная с января 2011 года, Вы можете получить, выбрав интересующий диапазон дат из раскрывающегося списка и нажав кнопку "Ввод!".

Внимание! Время в таблицах - всемирное. Для получения местного времени необходимо прибавить поправку, которая в Sabana De La Mar равна -4 ч.

Смотрите также архив погоды в соседних городах и на ближайших метеорологических станциях:

Погода в Las Americas (Доминиканская Республика) (75 км)
Погода в La Romana Int Airport (Доминиканская Республика) (82 км)
Погода в Santo Domingo (Доминиканская Республика) (87 км)
Погода в Punta Cana (Доминиканская Республика) (120 км)
Погода в Puerto Plata (Доминиканская Республика) (145 км)
Погода в Santiago (Доминиканская Республика) (146 км)
Погода в Barahona (Доминиканская Республика) (204 км)
Погода в Charlotte Amalie St. Thomas (Виргинские Острова) (472 км)
Погода в Punta de Maisi (Куба) (517 км)
Погода в Juliana Airport (Нидерландские Антилы) (671 км)

Пояснения к столбцам:

Ветер - указаны скорость ветра в м/с - средняя за 10 мин, порывы в срок и между сроками (в фигурных скобках) и направление, откуда дует ветер: С - северный, СВ - северо-восточный, В - восточный, ЮВ - юго-восточный, Ю - южный, ЮЗ - юго-западный, З - западный, СЗ - северо-западный.
Видимость - горизонтальная дальность видимости в метрах или километрах. При видимости от 1 до 10 км при отсутствии осадков обычно наблюдается дымка, при ухудшении видимости до 1 км и менее - туман. В сухую погоду видимость может ухудшаться дымом, пылью или мглою.
Явления - указаны атмосферные явления, наблюдавшиеся в срок или в последний час перед сроком; фигурными скобками обозначены явления, наблюдавшиеся между сроками (за 1-3 часа до срока); квадратными скобками обозначены град или гололедные отложения с указанием их диаметра в мм.
Облачность - указаны через наклонную черту общая и нижняя облачность в баллах и высота нижней границы облаков в метрах; квадратными скобками обозначены формы облаков: Ci - перистые, Cs - перисто-слоистые, Cc - перисто-кучевые, Ac - высококучевые, As - высокослоистые, Sc - слоисто-кучевые, Ns - слоисто-дождевые, Cu - кучевые, Cb - кучево-дождевые. Подробнее классификацию облаков см. в Атласе облаков (PDF).
T - Температура воздуха - температура, измеренная на высоте 2 м над землей.
Td - Температура точки росы - температура, при понижении до которой содержащийся в воздухе водяной пар достигнет насыщения.
f - Относительная влажность воздуха - влажноcть воздуха, измеренная на высоте 2 м над землей.
Te - Эффективная температура - температура, которую ощущает одетый по сезону человек в тени. Характеристика душности погоды. При расчете учитывается влияние влажности воздуха и скорости ветра на теплоощущения человека.
Tes - Эффективная температура на солнце - температура, которую ощущает человек, с поправкой на солнечный нагрев. Характеристика знойности погоды. Зависит от высоты солнца над горизонтом, облачности и скорости ветра. Ночью, в пасмурную погоду, а также при ветре 12 м/с и более поправка равна нулю.
P - Атмосферное давление - приведенное к уровню моря атмосферное давление.
Po - Атмосферное давление - измеренное на уровне метеостанции атмосферное давление.
Tmin - Минимальная температура - минимум температуры воздуха на высоте 2 м над землей.
Tmax - Максимальная температура - максимум температуры воздуха на высоте 2 м над землей.
R - Количество осадков - Количество выпавших осадков за период времени, мм. При наведении курсора мыши на число - период времени, за который выпало указанное количество осадков.
R24 - Количество осадков - Количество выпавших осадков за 24 часа, мм.
S - Снежный покров - Высота снежного покрова, см. При наведении курсора мыши на число - состояние снежного покрова и степень покрытия местности в баллах.